Weather in Alanap

Russia / Khabarovsk Krai     50°00′48″N   131°59′27″E
temp.,
°C
wind,
m/s
gust,
m/s
humid.,
%
clouds,
%
prec.,
mm/h
press.,
hPa
HPBL,
m
2 march, tue
tue201:00−28w11930 0.0 103119
04:00−29w11950 0.0 103119
07:00−30nw00972 0.0 103219
10:00−25s00893 0.0 1031164
13:00−17nw147443 0.0 1029697
16:00−15wnw247271 0.1 10271161
19:00−21wnw119093 0.0 102820
22:00−24se119446 0.0 102920
3 march, wed
wed301:00−23ene119986 0.1 102720
04:00−22ene119993 0.4 102625
07:00−23e1199100 0.2 102521
10:00−19e1393100 0.3 1024244
13:00−13e2487100 0.3 1020482
16:00−9se2490100 0.8 1017505
19:00−12s1292100 0.4 101630
22:00−17ese1294100 0.5 101722
4 march, thu
thu401:00−18e1298100 0.2 101585
04:00−18e1198100 0.3 101427
07:00−19e1198100 0.2 101420
10:00−14e129299 0.3 1013181
13:00−8ese1287100 0.1 1010306
16:00−4sw2593100 1.0 1008466
19:00−6w2695100 0.6 1009245
22:00−10w4109199 0.7 1012437
5 march, fri
fri501:00−18w399411 0.0 1015260
04:00−22w35957 0.0 1019128
07:00−26w34932 0.0 102394
10:00−24w49861 0.0 1025434
13:00−21w69730 0.0 1026937
16:00−21wnw6107818 0.0 1027996
19:00−24wnw5118599 0.0 1029780
22:00−25wnw4128968 0.0 1031519
6 march, sat
sat601:00−28w24970 0.0 103287
04:00−28w239824 0.0 103260
07:00−30w229815 0.0 103326
10:00−25w268827 0.0 1033363
13:00−19w477946 0.0 1031726
16:00−16wnw487426 0.0 1030919
19:00−19w39893 0.0 1031248
22:00−22w239713 0.0 103353